GPS BIIR-08

Last updated on Sat Aug 15 2026 00:02:48 GMT+0000 (Coordinated Universal Time)

1 27663U 03005A 26226.44455556 .00000023 00000+0 00000+0 0 9991 2 27663 54.8749 212.6549 0149108 53.3451 310.4231 2.00557405172480
UTC large
Height (km)
Speed (km/s)
/
Latitude / Longitude
Inclination (degrees)
Orbital Period (minutes)
Azimuth
Elevation
Range (km)
Doppler Factor

Next 0 passes for location: London (51.5072 / 0.1276)

No passes found over London.
GPS BIIR-08